| time (UTC) | temp F | wind direction | speed knots | gust knots | rain 1hr in | rain 24hr in | rain mn in | humidity % | barometer mb |
| 20260906232557 | 74 | 57 | 2.6 | 12.2 | 0.00 | 0.00 | 0.00 | 25 | 1017.8 |
| 20260906232054 | 75 | 172 | 1.7 | 6.1 | 0.00 | 0.00 | 0.00 | 25 | 1017.9 |
| 20260906231606 | 75 | 203 | 0.9 | 6.1 | 0.00 | 0.00 | 0.00 | 25 | 1017.9 |
| 20260906231051 | 75 | 73 | 1.7 | 7.0 | 0.00 | 0.00 | 0.00 | 24 | 1017.8 |
| 20260906230554 | 76 | 323 | 0.9 | 7.0 | 0.00 | 0.00 | 0.00 | 24 | 1017.9 |
| 20260906230105 | 76 | 348 | 0.9 | 4.3 | 0.00 | 0.00 | 0.00 | 24 | 1017.9 |
| 20260906225553 | 76 | 0 | 1.7 | 8.7 | 0.00 | 0.00 | 0.00 | 23 | 1017.8 |
| 20260906225054 | 76 | 241 | 2.6 | 8.7 | 0.00 | 0.00 | 0.00 | 23 | 1017.8 |
| 20260906224604 | 76 | 251 | 0.9 | 7.8 | 0.00 | 0.00 | 0.00 | 22 | 1017.8 |
| 20260906224054 | 76 | 321 | 3.5 | 8.7 | 0.00 | 0.00 | 0.00 | 21 | 1017.9 |
| 20260906223554 | 76 | 336 | 1.7 | 8.7 | 0.00 | 0.00 | 0.00 | 22 | 1018.0 |
| 20260906223106 | 77 | 315 | 2.6 | 8.7 | 0.00 | 0.00 | 0.00 | 22 | 1017.8 |
| 20260906222553 | 77 | 315 | 2.6 | 9.6 | 0.00 | 0.00 | 0.00 | 20 | 1017.9 |
| 20260906222056 | 77 | 203 | 1.7 | 9.6 | 0.00 | 0.00 | 0.00 | 20 | 1017.9 |
| 20260906221605 | 77 | 251 | 1.7 | 6.1 | 0.00 | 0.00 | 0.00 | 21 | 1017.9 |
| 20260906221056 | 77 | 198 | 1.7 | 6.1 | 0.00 | 0.00 | 0.00 | 21 | 1017.7 |
| 20260906220554 | 77 | 0 | 1.7 | 9.6 | 0.00 | 0.00 | 0.00 | 22 | 1017.7 |
| 20260906215551 | 77 | 227 | 2.6 | 7.8 | 0.00 | 0.00 | 0.00 | 21 | 1017.9 |
| 20260906215053 | 78 | 176 | 0.9 | 8.7 | 0.00 | 0.00 | 0.00 | 22 | 1018.0 |
| 20260906214600 | 77 | 50 | 1.7 | 9.6 | 0.00 | 0.00 | 0.00 | 21 | 1018.1 |
| 20260906214057 | 78 | 177 | 2.6 | 9.6 | 0.00 | 0.00 | 0.00 | 21 | 1018.2 |
| 20260906213557 | 78 | 196 | 1.7 | 7.8 | 0.00 | 0.00 | 0.00 | 21 | 1018.4 |
| 20260906213104 | 79 | 149 | 1.7 | 7.8 | 0.00 | 0.00 | 0.00 | 19 | 1018.4 |
| 20260906212554 | 80 | 274 | 1.7 | 5.2 | 0.00 | 0.00 | 0.00 | 21 | 1018.4 |
| 20260906212056 | 81 | 103 | 1.7 | 5.2 | 0.00 | 0.00 | 0.00 | 20 | 1018.4 |
| 20260906211604 | 80 | 171 | 2.6 | 5.2 | 0.00 | 0.00 | 0.00 | 20 | 1018.4 |
| 20260906211054 | 81 | 137 | 0.9 | 3.5 | 0.00 | 0.00 | 0.00 | 21 | 1018.4 |
| 20260906210554 | 81 | 215 | 0.9 | 5.2 | 0.00 | 0.00 | 0.00 | 19 | 1018.5 |
| 20260906210107 | 82 | 235 | 1.7 | 12.2 | 0.00 | 0.00 | 0.00 | 23 | 1018.5 |
| 20260906205554 | 81 | 234 | 1.7 | 12.2 | 0.00 | 0.00 | 0.00 | 20 | 1018.4 |
| 20260906205053 | 83 | 90 | 2.6 | 11.3 | 0.00 | 0.00 | 0.00 | 20 | 1018.7 |
| 20260906204607 | 82 | 311 | 0.9 | 5.2 | 0.00 | 0.00 | 0.00 | 21 | 1018.3 |
| 20260906204055 | 82 | 265 | 1.7 | 8.7 | 0.00 | 0.00 | 0.00 | 22 | 1018.6 |
| 20260906203556 | 82 | 41 | 1.7 | 9.6 | 0.00 | 0.00 | 0.00 | 20 | 1018.8 |
| 20260906203104 | 81 | 249 | 3.5 | 9.6 | 0.00 | 0.00 | 0.00 | 20 | 1018.8 |
| 20260906202557 | 82 | 294 | 1.7 | 9.6 | 0.00 | 0.00 | 0.00 | 19 | 1018.8 |
| 20260906202055 | 82 | 12 | 1.7 | 9.6 | 0.00 | 0.00 | 0.00 | 21 | 1018.8 |
| 20260906201602 | 82 | 134 | 0.9 | 7.0 | 0.00 | 0.00 | 0.00 | 22 | 1018.9 |
| 20260906201052 | 80 | 273 | 2.6 | 13.0 | 0.00 | 0.00 | 0.00 | 20 | 1018.9 |
| 20260906200551 | 80 | 197 | 1.7 | 13.0 | 0.00 | 0.00 | 0.00 | 22 | 1018.9 |
| 20260906195553 | 81 | 231 | 1.7 | 8.7 | 0.00 | 0.00 | 0.00 | 22 | 1019.1 |
| 20260906195053 | 82 | 203 | 1.7 | 8.7 | 0.00 | 0.00 | 0.00 | 20 | 1019.2 |
| 20260906194602 | 81 | 244 | 1.7 | 7.8 | 0.00 | 0.00 | 0.00 | 23 | 1019.3 |
| 20260906194054 | 81 | 298 | 2.6 | 7.8 | 0.00 | 0.00 | 0.00 | 22 | 1019.2 |
| 20260906193556 | 81 | 78 | 0.9 | 6.1 | 0.00 | 0.00 | 0.00 | 22 | 1019.5 |
| 20260906193104 | 80 | 189 | 1.7 | 7.0 | 0.00 | 0.00 | 0.00 | 23 | 1019.5 |
| 20260906192553 | 80 | 277 | 1.7 | 7.0 | 0.00 | 0.00 | 0.00 | 22 | 1019.7 |
| 20260906192050 | 81 | 155 | 0.9 | 7.0 | 0.00 | 0.00 | 0.00 | 20 | 1019.7 |
| 20260906191610 | 81 | 10 | 1.7 | 10.4 | 0.00 | 0.00 | 0.00 | 22 | 1019.7 |
| 20260906191050 | 80 | 279 | 1.7 | 10.4 | 0.00 | 0.00 | 0.00 | 24 | 1019.8 |
| 20260906190554 | 80 | 224 | 1.7 | 7.0 | 0.00 | 0.00 | 0.00 | 23 | 1020.1 |
| 20260906185554 | 79 | 234 | 1.7 | 7.0 | 0.00 | 0.00 | 0.00 | 22 | 1020.2 |
| 20260906185054 | 80 | 289 | 0.9 | 5.2 | 0.00 | 0.00 | 0.00 | 22 | 1020.3 |
| 20260906184604 | 79 | 353 | 0.9 | 7.0 | 0.00 | 0.00 | 0.00 | 23 | 1020.4 |
| 20260906184053 | 81 | 232 | 0.9 | 7.0 | 0.00 | 0.00 | 0.00 | 24 | 1020.4 |
| 20260906183553 | 79 | 0 | 1.7 | 7.8 | 0.00 | 0.00 | 0.00 | 23 | 1020.5 |
| 20260906183108 | 77 | 0 | 3.5 | 7.8 | 0.00 | 0.00 | 0.00 | 22 | 1020.6 |
| 20260906182554 | 79 | 146 | 1.7 | 5.2 | 0.00 | 0.00 | 0.00 | 22 | 1020.6 |
| 20260906182055 | 79 | 292 | 0.9 | 7.0 | 0.00 | 0.00 | 0.00 | 26 | 1020.7 |
| 20260906181609 | 79 | 288 | 0.9 | 7.0 | 0.00 | 0.00 | 0.00 | 24 | 1020.8 |
| 20260906181054 | 77 | 134 | 0.9 | 7.0 | 0.00 | 0.00 | 0.00 | 24 | 1020.8 |
| 20260906180551 | 76 | 278 | 2.6 | 7.0 | 0.00 | 0.00 | 0.00 | 23 | 1021.0 |
| 20260906180111 | 77 | 174 | 1.7 | 7.0 | 0.00 | 0.00 | 0.00 | 24 | 1021.1 |
| 20260906175552 | 76 | 0 | 1.7 | 7.8 | 0.00 | 0.00 | 0.00 | 25 | 1021.1 |
| 20260906175057 | 76 | 277 | 1.7 | 8.7 | 0.00 | 0.00 | 0.00 | 24 | 1021.3 |
| 20260906174603 | 77 | 223 | 2.6 | 8.7 | 0.00 | 0.00 | 0.00 | 25 | 1021.4 |
| 20260906174056 | 75 | 99 | 1.7 | 4.3 | 0.00 | 0.00 | 0.00 | 25 | 1021.4 |
| 20260906173553 | 76 | 0 | 0.9 | 3.5 | 0.00 | 0.00 | 0.00 | 26 | 1021.4 |
| 20260906173105 | 76 | 1 | 1.7 | 3.5 | 0.00 | 0.00 | 0.00 | 30 | 1021.5 |
| 20260906172554 | 74 | 0 | 0.9 | 2.6 | 0.00 | 0.00 | 0.00 | 28 | 1021.4 |
| 20260906172053 | 74 | 269 | 0.0 | 4.3 | 0.00 | 0.00 | 0.00 | 27 | 1021.6 |
| 20260906171606 | 74 | 328 | 0.0 | 4.3 | 0.00 | 0.00 | 0.00 | 30 | 1021.7 |
| 20260906171054 | 73 | 80 | 1.7 | 5.2 | 0.00 | 0.00 | 0.00 | 31 | 1021.8 |
| 20260906170551 | 72 | 153 | 1.7 | 5.2 | 0.00 | 0.00 | 0.00 | 33 | 1021.9 |
| 20260906170123 | 71 | 111 | 0.9 | 5.2 | 0.00 | 0.00 | 0.00 | 35 | 1022.0 |
| 20260906165550 | 68 | 120 | 1.7 | 4.3 | 0.00 | 0.00 | 0.00 | 35 | 1022.1 |
| 20260906165055 | 69 | 174 | 0.9 | 4.3 | 0.00 | 0.00 | 0.00 | 36 | 1022.1 |
| 20260906164603 | 67 | 78 | 1.7 | 3.5 | 0.00 | 0.00 | 0.00 | 39 | 1022.1 |
| 20260906164052 | 66 | 0 | 0.9 | 3.5 | 0.00 | 0.00 | 0.00 | 39 | 1022.3 |
| 20260906163552 | 66 | 0 | 0.9 | 3.5 | 0.00 | 0.00 | 0.00 | 41 | 1022.3 |
| 20260906163114 | 67 | 205 | 1.7 | 3.5 | 0.00 | 0.00 | 0.00 | 40 | 1022.3 |
| 20260906162552 | 66 | 104 | 1.7 | 3.5 | 0.00 | 0.00 | 0.00 | 40 | 1022.4 |
| 20260906162054 | 65 | 142 | 0.9 | 3.5 | 0.00 | 0.00 | 0.00 | 41 | 1022.5 |
| 20260906161604 | 66 | 143 | 1.7 | 4.3 | 0.00 | 0.00 | 0.00 | 40 | 1022.5 |
| 20260906161053 | 65 | 145 | 1.7 | 4.3 | 0.00 | 0.00 | 0.00 | 43 | 1022.5 |
| 20260906160555 | 65 | 149 | 0.9 | 4.3 | 0.00 | 0.00 | 0.00 | 41 | 1022.6 |
| 20260906160104 | 64 | 118 | 1.7 | 3.5 | 0.00 | 0.00 | 0.00 | 44 | 1022.6 |
| 20260906155554 | 63 | 170 | 1.7 | 4.3 | 0.00 | 0.00 | 0.00 | 43 | 1022.6 |
| 20260906155057 | 61 | 157 | 1.7 | 4.3 | 0.00 | 0.00 | 0.00 | 43 | 1022.7 |
| 20260906154604 | 61 | 140 | 0.9 | 2.6 | 0.00 | 0.00 | 0.00 | 48 | 1022.8 |
| 20260906154054 | 60 | 128 | 0.9 | 2.6 | 0.00 | 0.00 | 0.00 | 48 | 1022.5 |
| 20260906153556 | 60 | 111 | 0.9 | 2.6 | 0.00 | 0.00 | 0.00 | 48 | 1022.6 |
| 20260906153104 | 59 | 119 | 0.0 | 2.6 | 0.00 | 0.00 | 0.00 | 52 | 1022.5 |
| 20260906152551 | 58 | 112 | 0.9 | 2.6 | 0.00 | 0.00 | 0.00 | 50 | 1022.5 |
| 20260906152051 | 57 | 140 | 0.9 | 2.6 | 0.00 | 0.00 | 0.00 | 52 | 1022.5 |
| 20260906151606 | 56 | 130 | 0.9 | 2.6 | 0.00 | 0.00 | 0.00 | 54 | 1022.4 |
| 20260906151051 | 55 | 170 | 0.9 | 2.6 | 0.00 | 0.00 | 0.00 | 52 | 1022.5 |
| 20260906150554 | 54 | 132 | 0.9 | 2.6 | 0.00 | 0.00 | 0.00 | 57 | 1022.7 |
| 20260906150113 | 53 | 132 | 0.9 | 2.6 | 0.00 | 0.00 | 0.00 | 58 | 1022.6 |
| 20260906145554 | 53 | 0 | 1.7 | 2.6 | 0.00 | 0.00 | 0.00 | 59 | 1022.5 |
| 20260906145054 | 51 | 128 | 0.9 | 2.6 | 0.00 | 0.00 | 0.00 | 63 | 1022.5 |
| 20260906144603 | 50 | 122 | 0.9 | 2.6 | 0.00 | 0.00 | 0.00 | 64 | 1022.7 |
| 20260906144053 | 48 | 126 | 0.9 | 1.7 | 0.00 | 0.00 | 0.00 | 68 | 1022.8 |
| 20260906143551 | 46 | 0 | 0.0 | 0.9 | 0.00 | 0.00 | 0.00 | 75 | 1022.7 |
| 20260906143104 | 45 | 0 | 0.0 | 0.9 | 0.00 | 0.00 | 0.00 | 75 | 1022.8 |
| 20260906142550 | 44 | 67 | 0.0 | 1.7 | 0.00 | 0.00 | 0.00 | 77 | 1022.6 |
| 20260906142054 | 42 | 0 | 0.0 | 1.7 | 0.00 | 0.00 | 0.00 | 79 | 1022.6 |
| 20260906141602 | 42 | 57 | 0.0 | 1.7 | 0.00 | 0.00 | 0.00 | 80 | 1022.6 |
| 20260906141054 | 41 | 0 | 0.0 | 1.7 | 0.00 | 0.00 | 0.00 | 80 | 1022.8 |
| 20260906140557 | 40 | 0 | 0.0 | 1.7 | 0.00 | 0.00 | 0.00 | 83 | 1022.8 |
| 20260906140104 | 39 | 0 | 0.0 | 0.9 | 0.00 | 0.00 | 0.00 | 83 | 1022.7 |
| 20260906135558 | 38 | 0 | 0.0 | 1.7 | 0.00 | 0.00 | 0.00 | 81 | 1022.8 |
| 20260906135054 | 38 | 0 | 0.0 | 1.7 | 0.00 | 0.00 | 0.00 | 83 | 1022.9 |
| 20260906134604 | 37 | 0 | 0.0 | 0.9 | 0.00 | 0.00 | 0.00 | 83 | 1022.8 |
| 20260906134054 | 37 | 0 | 0.0 | 0.9 | 0.00 | 0.00 | 0.00 | 84 | 1022.7 |
| 20260906133553 | 36 | 201 | 0.0 | 0.9 | 0.00 | 0.00 | 0.00 | 84 | 1022.8 |
| 20260906133136 | 36 | 0 | 0.0 | 0.9 | 0.00 | 0.00 | 0.00 | 85 | 1022.9 |
| 20260906132554 | 36 | 0 | 0.0 | 0.9 | 0.00 | 0.00 | 0.00 | 84 | 1022.8 |
| 20260906132055 | 37 | 0 | 0.0 | 0.0 | 0.00 | 0.00 | 0.00 | 84 | 1022.9 |
| 20260906131601 | 36 | 0 | 0.0 | 0.9 | 0.00 | 0.00 | 0.00 | 86 | 1022.9 |
| 20260906131054 | 36 | 0 | 0.0 | 0.9 | 0.00 | 0.00 | 0.00 | 84 | 1022.8 |
| 20260906130554 | 37 | 0 | 0.0 | 1.7 | 0.00 | 0.00 | 0.00 | 81 | 1022.8 |
| 20260906130109 | 37 | 0 | 0.0 | 1.7 | 0.00 | 0.00 | 0.00 | 83 | 1022.8 |
| 20260906125554 | 37 | 0 | 0.0 | 1.7 | 0.00 | 0.00 | 0.00 | 82 | 1022.8 |
| 20260906125053 | 37 | 0 | 0.0 | 1.7 | 0.00 | 0.00 | 0.00 | 83 | 1022.8 |
| 20260906124602 | 37 | 201 | 0.0 | 1.7 | 0.00 | 0.00 | 0.00 | 83 | 1022.9 |
| 20260906124054 | 37 | 190 | 0.0 | 0.0 | 0.00 | 0.00 | 0.00 | 81 | 1022.8 |
| 20260906123554 | 37 | 0 | 0.0 | 0.0 | 0.00 | 0.00 | 0.00 | 81 | 1022.9 |
| 20260906123103 | 37 | 0 | 0.0 | 0.0 | 0.00 | 0.00 | 0.00 | 84 | 1022.8 |
| 20260906122555 | 37 | 0 | 0.0 | 0.9 | 0.00 | 0.00 | 0.00 | 81 | 1022.8 |
| 20260906122054 | 38 | 0 | 0.0 | 0.9 | 0.00 | 0.00 | 0.00 | 81 | 1022.7 |
| 20260906121606 | 39 | 0 | 0.0 | 0.9 | 0.00 | 0.00 | 0.00 | 79 | 1022.7 |
| 20260906121054 | 39 | 0 | 0.0 | 0.9 | 0.00 | 0.00 | 0.00 | 80 | 1022.7 |
| 20260906120554 | 39 | 0 | 0.0 | 0.9 | 0.00 | 0.00 | 0.00 | 80 | 1022.8 |
| 20260906115555 | 38 | 0 | 0.0 | 0.9 | 0.00 | 0.00 | 0.00 | 80 | 1022.8 |
| 20260906115053 | 39 | 0 | 0.0 | 0.0 | 0.00 | 0.00 | 0.00 | 81 | 1022.8 |
| 20260906114602 | 39 | 0 | 0.0 | 0.0 | 0.00 | 0.00 | 0.00 | 80 | 1022.6 |
| 20260906114054 | 40 | 0 | 0.0 | 0.0 | 0.00 | 0.00 | 0.00 | 79 | 1022.8 |
| 20260906113554 | 40 | 0 | 0.0 | 0.9 | 0.00 | 0.00 | 0.00 | 78 | 1022.7 |
| 20260906113101 | 40 | 0 | 0.0 | 0.9 | 0.00 | 0.00 | 0.00 | 79 | 1022.6 |
| 20260906112554 | 40 | 0 | 0.0 | 0.9 | 0.00 | 0.00 | 0.00 | 78 | 1022.6 |
| 20260906112054 | 40 | 0 | 0.0 | 0.0 | 0.00 | 0.00 | 0.00 | 79 | 1022.6 |
| 20260906111618 | 40 | 0 | 0.0 | 0.9 | 0.00 | 0.00 | 0.00 | 79 | 1022.5 |
| 20260906111054 | 40 | 0 | 0.0 | 0.9 | 0.00 | 0.00 | 0.00 | 78 | 1022.4 |
| 20260906110555 | 40 | 0 | 0.0 | 1.7 | 0.00 | 0.00 | 0.00 | 79 | 1022.4 |
| 20260906105554 | 41 | 0 | 0.0 | 0.0 | 0.00 | 0.00 | 0.00 | 78 | 1022.4 |
| 20260906105054 | 41 | 0 | 0.0 | 0.0 | 0.00 | 0.00 | 0.00 | 78 | 1022.3 |
| 20260906104601 | 41 | 0 | 0.0 | 0.0 | 0.00 | 0.00 | 0.00 | 78 | 1022.4 |
| 20260906104051 | 40 | 0 | 0.0 | 0.0 | 0.00 | 0.00 | 0.00 | 79 | 1022.3 |
| 20260906103550 | 40 | 0 | 0.0 | 0.0 | 0.00 | 0.00 | 0.00 | 79 | 1022.1 |
| 20260906103058 | 40 | 0 | 0.0 | 0.0 | 0.00 | 0.00 | 0.00 | 80 | 1022.1 |
| 20260906102550 | 40 | 0 | 0.0 | 0.0 | 0.00 | 0.00 | 0.00 | 80 | 1022.1 |
| 20260906102052 | 40 | 0 | 0.0 | 0.0 | 0.00 | 0.00 | 0.00 | 78 | 1022.0 |
| 20260906101604 | 40 | 0 | 0.0 | 0.0 | 0.00 | 0.00 | 0.00 | 77 | 1022.0 |
| 20260906101052 | 41 | 0 | 0.0 | 0.9 | 0.00 | 0.00 | 0.00 | 77 | 1021.9 |
| 20260906100550 | 41 | 0 | 0.0 | 0.9 | 0.00 | 0.00 | 0.00 | 77 | 1021.9 |
| 20260906100100 | 41 | 0 | 0.0 | 0.9 | 0.00 | 0.00 | 0.00 | 76 | 1021.8 |
| 20260906095556 | 41 | 0 | 0.0 | 0.9 | 0.00 | 0.00 | 0.00 | 77 | 1021.9 |
| 20260906095050 | 41 | 0 | 0.0 | 0.0 | 0.00 | 0.00 | 0.00 | 77 | 1021.9 |
| 20260906094557 | 41 | 0 | 0.0 | 0.9 | 0.00 | 0.00 | 0.00 | 77 | 1021.9 |
| 20260906094050 | 41 | 0 | 0.0 | 0.9 | 0.00 | 0.00 | 0.00 | 78 | 1021.9 |
| 20260906093550 | 41 | 0 | 0.0 | 0.9 | 0.00 | 0.00 | 0.00 | 77 | 1021.9 |
| 20260906093102 | 42 | 0 | 0.0 | 0.9 | 0.00 | 0.00 | 0.00 | 77 | 1021.9 |
| 20260906092553 | 41 | 0 | 0.0 | 0.0 | 0.00 | 0.00 | 0.00 | 77 | 1021.9 |
| 20260906092053 | 42 | 0 | 0.0 | 0.9 | 0.00 | 0.00 | 0.00 | 75 | 1021.9 |
| 20260906091604 | 42 | 0 | 0.0 | 0.9 | 0.00 | 0.00 | 0.00 | 75 | 1021.9 |
| 20260906091053 | 42 | 0 | 0.0 | 0.9 | 0.00 | 0.00 | 0.00 | 74 | 1021.9 |
| 20260906090552 | 42 | 0 | 0.0 | 1.7 | 0.00 | 0.00 | 0.00 | 75 | 1022.0 |
| 20260906090141 | 41 | 0 | 0.0 | 1.7 | 0.00 | 0.00 | 0.00 | 77 | 1021.9 |
| 20260906085556 | 41 | 190 | 0.0 | 0.9 | 0.00 | 0.00 | 0.00 | 75 | 1021.9 |
| 20260906085052 | 42 | 0 | 0.0 | 0.9 | 0.00 | 0.00 | 0.00 | 75 | 1021.7 |
| 20260906084600 | 43 | 0 | 0.0 | 0.9 | 0.00 | 0.00 | 0.00 | 75 | 1021.9 |
| 20260906084055 | 43 | 0 | 0.0 | 1.7 | 0.00 | 0.00 | 0.00 | 73 | 1022.0 |
| 20260906083557 | 43 | 0 | 0.0 | 1.7 | 0.00 | 0.00 | 0.00 | 73 | 1022.0 |
| 20260906083102 | 43 | 190 | 0.0 | 1.7 | 0.00 | 0.00 | 0.00 | 74 | 1021.9 |
| 20260906082553 | 43 | 206 | 0.0 | 0.9 | 0.00 | 0.00 | 0.00 | 73 | 1022.0 |
| 20260906082054 | 44 | 206 | 0.0 | 0.9 | 0.00 | 0.00 | 0.00 | 72 | 1021.9 |
| 20260906081603 | 44 | 0 | 0.0 | 0.9 | 0.00 | 0.00 | 0.00 | 73 | 1022.2 |
| 20260906081057 | 43 | 0 | 0.0 | 0.9 | 0.00 | 0.00 | 0.00 | 74 | 1022.1 |
| 20260906080556 | 44 | 0 | 0.0 | 1.7 | 0.00 | 0.00 | 0.00 | 74 | 1022.1 |
| 20260906080107 | 43 | 0 | 0.0 | 1.7 | 0.00 | 0.00 | 0.00 | 76 | 1022.1 |
| 20260906075554 | 44 | 206 | 0.0 | 1.7 | 0.00 | 0.00 | 0.00 | 73 | 1022.1 |
| 20260906075057 | 44 | 0 | 0.0 | 0.9 | 0.00 | 0.00 | 0.00 | 73 | 1022.1 |
| 20260906074601 | 44 | 0 | 0.0 | 0.9 | 0.00 | 0.00 | 0.00 | 72 | 1022.1 |
| 20260906074054 | 45 | 0 | 0.0 | 0.9 | 0.00 | 0.00 | 0.00 | 72 | 1022.1 |
| 20260906073554 | 45 | 0 | 0.0 | 0.9 | 0.00 | 0.00 | 0.00 | 71 | 1022.0 |
| 20260906073101 | 45 | 0 | 0.0 | 0.9 | 0.00 | 0.00 | 0.00 | 72 | 1022.1 |
| 20260906072557 | 44 | 0 | 0.0 | 3.5 | 0.00 | 0.00 | 0.00 | 71 | 1022.1 |
| 20260906072055 | 45 | 0 | 0.0 | 3.5 | 0.00 | 0.00 | 0.00 | 71 | 1022.3 |
| 20260906071604 | 44 | 0 | 0.9 | 3.5 | 0.00 | 0.00 | 0.00 | 73 | 1022.4 |
| 20260906071054 | 46 | 0 | 0.0 | 1.7 | 0.00 | 0.00 | 0.00 | 72 | 1022.2 |
| 20260906070555 | 45 | 0 | 0.0 | 1.7 | 0.00 | 0.00 | 0.00 | 71 | 1022.3 |
| 20260906065553 | 45 | 0 | 0.0 | 0.9 | 0.00 | 0.00 | 0.00 | 71 | 1022.4 |
| 20260906065055 | 45 | 0 | 0.0 | 0.9 | 0.00 | 0.00 | 0.00 | 72 | 1022.5 |
| 20260906064558 | 45 | 0 | 0.0 | 0.9 | 0.00 | 0.00 | 0.00 | 72 | 1022.5 |
| 20260906064053 | 45 | 212 | 0.0 | 0.9 | 0.00 | 0.00 | 0.00 | 70 | 1022.5 |
| 20260906063554 | 45 | 0 | 0.0 | 0.9 | 0.00 | 0.00 | 0.00 | 70 | 1022.3 |
| 20260906063058 | 45 | 0 | 0.0 | 0.0 | 0.00 | 0.00 | 0.00 | 71 | 1022.5 |
| 20260906062554 | 46 | 0 | 0.0 | 0.9 | 0.00 | 0.00 | 0.00 | 69 | 1022.5 |
| 20260906062056 | 46 | 0 | 0.0 | 0.9 | 0.00 | 0.00 | 0.00 | 69 | 1022.4 |
| 20260906061607 | 47 | 0 | 0.0 | 0.9 | 0.00 | 0.00 | 0.00 | 68 | 1022.4 |
| 20260906061056 | 47 | 0 | 0.0 | 0.0 | 0.00 | 0.00 | 0.00 | 69 | 1022.5 |
| 20260906060554 | 46 | 0 | 0.0 | 0.0 | 0.00 | 0.00 | 0.00 | 69 | 1022.5 |
| 20260906060106 | 47 | 0 | 0.0 | 0.0 | 0.00 | 0.00 | 0.00 | 66 | 1022.6 |
| 20260906055554 | 47 | 0 | 0.0 | 0.9 | 0.00 | 0.00 | 0.00 | 65 | 1022.5 |
| 20260906055054 | 47 | 0 | 0.0 | 0.9 | 0.00 | 0.00 | 0.00 | 67 | 1022.7 |
| 20260906054607 | 47 | 0 | 0.0 | 0.9 | 0.00 | 0.00 | 0.00 | 67 | 1022.8 |
| 20260906054054 | 47 | 0 | 0.0 | 0.0 | 0.00 | 0.00 | 0.00 | 67 | 1022.6 |
| 20260906053554 | 47 | 0 | 0.0 | 0.9 | 0.00 | 0.00 | 0.00 | 68 | 1022.6 |
| 20260906053103 | 47 | 0 | 0.0 | 0.9 | 0.00 | 0.00 | 0.00 | 68 | 1022.6 |
| 20260906052555 | 46 | 0 | 0.0 | 0.9 | 0.00 | 0.00 | 0.00 | 69 | 1022.6 |
| 20260906052054 | 47 | 0 | 0.0 | 0.9 | 0.00 | 0.00 | 0.00 | 67 | 1022.5 |
| 20260906051613 | 47 | 0 | 0.0 | 0.9 | 0.00 | 0.00 | 0.00 | 67 | 1022.5 |
| 20260906051052 | 47 | 0 | 0.0 | 0.9 | 0.00 | 0.00 | 0.00 | 67 | 1022.5 |
| 20260906050551 | 48 | 0 | 0.0 | 0.9 | 0.00 | 0.00 | 0.00 | 66 | 1022.4 |
| 20260906045553 | 48 | 0 | 0.0 | 1.7 | 0.00 | 0.00 | 0.00 | 66 | 1022.4 |
| 20260906045055 | 47 | 0 | 0.0 | 1.7 | 0.00 | 0.00 | 0.00 | 69 | 1022.4 |
| 20260906044608 | 48 | 0 | 0.0 | 1.7 | 0.00 | 0.00 | 0.00 | 64 | 1022.5 |
| 20260906044050 | 49 | 0 | 0.0 | 1.7 | 0.00 | 0.00 | 0.00 | 62 | 1022.5 |
| 20260906043551 | 49 | 0 | 0.0 | 0.0 | 0.00 | 0.00 | 0.00 | 64 | 1022.7 |
| 20260906043101 | 50 | 0 | 0.0 | 0.9 | 0.00 | 0.00 | 0.00 | 61 | 1022.7 |
| 20260906042553 | 49 | 0 | 0.0 | 0.9 | 0.00 | 0.00 | 0.00 | 62 | 1022.6 |
| 20260906042052 | 50 | 186 | 0.0 | 0.9 | 0.00 | 0.00 | 0.00 | 65 | 1022.5 |
| 20260906041602 | 51 | 0 | 0.0 | 0.0 | 0.00 | 0.00 | 0.00 | 60 | 1022.5 |
| 20260906041052 | 51 | 0 | 0.0 | 0.9 | 0.00 | 0.00 | 0.00 | 62 | 1022.5 |
| 20260906040551 | 52 | 0 | 0.0 | 0.9 | 0.00 | 0.00 | 0.00 | 59 | 1022.3 |
| 20260906040139 | 51 | 0 | 0.0 | 0.9 | 0.00 | 0.00 | 0.00 | 61 | 1022.2 |
| 20260906035551 | 51 | 0 | 0.0 | 0.9 | 0.00 | 0.00 | 0.00 | 61 | 1022.2 |
| 20260906035051 | 52 | 0 | 0.0 | 0.9 | 0.00 | 0.00 | 0.00 | 58 | 1022.2 |
| 20260906034605 | 52 | 186 | 0.0 | 0.0 | 0.00 | 0.00 | 0.00 | 59 | 1022.1 |
| 20260906034051 | 52 | 0 | 0.0 | 0.9 | 0.00 | 0.00 | 0.00 | 61 | 1022.1 |
| 20260906033552 | 53 | 0 | 0.0 | 0.9 | 0.00 | 0.00 | 0.00 | 60 | 1021.9 |
| 20260906033107 | 53 | 0 | 0.0 | 0.9 | 0.00 | 0.00 | 0.00 | 59 | 1021.8 |
| 20260906032551 | 53 | 0 | 0.0 | 0.9 | 0.00 | 0.00 | 0.00 | 59 | 1021.7 |
| 20260906032052 | 54 | 0 | 0.0 | 0.9 | 0.00 | 0.00 | 0.00 | 58 | 1021.8 |
| 20260906031601 | 55 | 0 | 0.0 | 0.9 | 0.00 | 0.00 | 0.00 | 57 | 1021.7 |
| 20260906031051 | 55 | 0 | 0.0 | 0.0 | 0.00 | 0.00 | 0.00 | 56 | 1021.7 |
| 20260906030553 | 55 | 0 | 0.0 | 0.0 | 0.00 | 0.00 | 0.00 | 56 | 1021.5 |
| 20260906030104 | 56 | 0 | 0.0 | 0.0 | 0.00 | 0.00 | 0.00 | 53 | 1021.5 |
| 20260906025551 | 56 | 0 | 0.0 | 0.9 | 0.00 | 0.00 | 0.00 | 52 | 1021.4 |
| 20260906025051 | 56 | 0 | 0.0 | 1.7 | 0.00 | 0.00 | 0.00 | 52 | 1021.3 |
| 20260906024612 | 57 | 0 | 0.0 | 1.7 | 0.00 | 0.00 | 0.00 | 49 | 1021.3 |
| 20260906024052 | 56 | 0 | 0.0 | 1.7 | 0.00 | 0.00 | 0.00 | 52 | 1021.2 |
| 20260906023550 | 57 | 0 | 0.0 | 0.0 | 0.00 | 0.00 | 0.00 | 48 | 1021.0 |
| 20260906023103 | 58 | 0 | 0.0 | 0.0 | 0.00 | 0.00 | 0.00 | 47 | 1020.9 |
| 20260906022552 | 58 | 0 | 0.0 | 0.0 | 0.00 | 0.00 | 0.00 | 44 | 1020.9 |
| 20260906022053 | 59 | 0 | 0.0 | 0.0 | 0.00 | 0.00 | 0.00 | 42 | 1020.7 |
| 20260906021601 | 59 | 0 | 0.0 | 0.0 | 0.00 | 0.00 | 0.00 | 42 | 1020.7 |
| 20260906021054 | 60 | 0 | 0.0 | 0.9 | 0.00 | 0.00 | 0.00 | 44 | 1020.6 |
| 20260906020553 | 61 | 0 | 0.0 | 0.9 | 0.00 | 0.00 | 0.00 | 41 | 1020.6 |
| 20260906020103 | 62 | 0 | 0.0 | 0.9 | 0.00 | 0.00 | 0.00 | 39 | 1020.6 |
| 20260906015550 | 62 | 0 | 0.0 | 0.9 | 0.00 | 0.00 | 0.00 | 38 | 1020.5 |
| 20260906015053 | 63 | 0 | 0.0 | 0.9 | 0.00 | 0.00 | 0.00 | 42 | 1020.5 |
| 20260906014559 | 64 | 0 | 0.0 | 0.9 | 0.00 | 0.00 | 0.00 | 36 | 1020.6 |
| 20260906014052 | 65 | 0 | 0.0 | 0.9 | 0.00 | 0.00 | 0.00 | 36 | 1020.5 |
| 20260906013553 | 66 | 0 | 0.0 | 0.9 | 0.00 | 0.00 | 0.00 | 33 | 1020.6 |
| 20260906013117 | 67 | 0 | 0.0 | 0.9 | 0.00 | 0.00 | 0.00 | 31 | 1020.7 |
| 20260906012553 | 69 | 0 | 0.0 | 1.7 | 0.00 | 0.00 | 0.00 | 30 | 1020.6 |
| 20260906012052 | 69 | 0 | 0.0 | 1.7 | 0.00 | 0.00 | 0.00 | 28 | 1020.7 |
| 20260906011604 | 70 | 0 | 0.0 | 3.5 | 0.00 | 0.00 | 0.00 | 26 | 1020.6 |
| 20260906011052 | 71 | 0 | 0.0 | 3.5 | 0.00 | 0.00 | 0.00 | 25 | 1020.6 |
| 20260906010552 | 71 | 0 | 0.0 | 3.5 | 0.00 | 0.00 | 0.00 | 25 | 1020.6 |
| 20260906010106 | 72 | 0 | 0.0 | 6.1 | 0.00 | 0.00 | 0.00 | 24 | 1020.5 |
| 20260906005552 | 72 | 248 | 1.7 | 6.1 | 0.00 | 0.00 | 0.00 | 23 | 1020.5 |
| 20260906005053 | 73 | 0 | 1.7 | 5.2 | 0.00 | 0.00 | 0.00 | 22 | 1020.4 |
| 20260906004601 | 73 | 266 | 0.9 | 4.3 | 0.00 | 0.00 | 0.00 | 21 | 1020.3 |
| 20260906004052 | 73 | 198 | 1.7 | 13.9 | 0.00 | 0.00 | 0.00 | 20 | 1020.3 |
| 20260906003552 | 73 | 207 | 3.5 | 13.9 | 0.00 | 0.00 | 0.00 | 21 | 1020.3 |
| 20260906003102 | 73 | 234 | 1.7 | 8.7 | 0.00 | 0.00 | 0.00 | 20 | 1020.3 |
| 20260906002554 | 74 | 239 | 1.7 | 12.2 | 0.00 | 0.00 | 0.00 | 21 | 1020.3 |
| 20260906002050 | 74 | 207 | 2.6 | 12.2 | 0.00 | 0.00 | 0.00 | 20 | 1020.3 |
| 20260906001608 | 74 | 215 | 2.6 | 8.7 | 0.00 | 0.00 | 0.00 | 21 | 1020.2 |
| 20260906001050 | 74 | 251 | 1.7 | 8.7 | 0.00 | 0.00 | 0.00 | 22 | 1020.3 |
| 20260906000550 | 74 | 271 | 0.9 | 9.6 | 0.00 | 0.00 | 0.00 | 23 | 1020.3 |
| 20260906000101 | 74 | 348 | 1.7 | 9.6 | 0.00 | 0.00 | 0.00 | 21 | 1020.3 |
| 20260905235550 | 75 | 286 | 2.6 | 10.4 | 0.00 | 0.00 | 0.00 | 22 | 1020.4 |
| 20260905235053 | 75 | 132 | 0.9 | 12.2 | 0.00 | 0.00 | 0.00 | 22 | 1020.3 |
| 20260905234559 | 75 | 294 | 2.6 | 12.2 | 0.00 | 0.00 | 0.00 | 21 | 1020.3 |
| 20260905234052 | 75 | 272 | 0.9 | 5.2 | 0.00 | 0.00 | 0.00 | 23 | 1020.1 |
| 20260905233553 | 75 | 265 | 0.9 | 11.3 | 0.00 | 0.00 | 0.00 | 25 | 1020.3 |
| 20260905233104 | 75 | 254 | 2.6 | 11.3 | 0.00 | 0.00 | 0.00 | 22 | 1020.2 |